Content
SEND FEEDBACK

Daily
Averages
Monthly
Summary
United States of America

MALDEN, MISSOURI


Home > North America > United States > Missouri
Elevation: 295 feet     Latitude: 36 36N     Longitude: 089 59W

WEATHER
 
SELECT A DAY
Number of Records: 210,862;   Date Range: 1/1/95 - 10/20/14
 
SHARE

PRINT THIS DATA

[ ← Previous Day ]
WEATHER ALMANAC - AUGUST 25, 2014
[ Next Day → ]
[ °C ]   °F
Weather ElementAverageHighLow
Temperature83.4 °F93.9 °F (2:53 pm)73 °F (8:53 pm)
Dewpoint71.8 °F73 °F (10:18 am)70 °F (10:53 am)
Humidity69.7 %90 % (4:53 am)50 % (10:53 am)
Barometer29.97 in30.01 in (6:53 am)29.94 in (5:01 am)
Wind Speed2.1 mph8.1 mph (3:53 pm)
Weather ElementAverage
Visibility9.1 mi
Wind DirectionNE (47 °)

Weather ElementTotal
Precipitation---
Cooling Degree Days18.5 (Base 65)
Growing Degree Days33.5 (Base 50)
Averaged from 20 records on August 25, 2014
WEATHER CONDITIONS BREAKOUT
WIND DIRECTION BREAKOUT
WEATHER BY HOUR - AUGUST 25, 2014
[ °C ]   °F
Local TimeTemperatureDewpointHumidityBarometerVisibilityWind DirectionWind SpeedGust SpeedPrecipitationEventsConditions
12:53 AM77.0 °F72.0 °F84 %29.95 in10.0 miCalmClear
1:53 AM75.9 °F71.1 °F85 %29.95 in10.0 miCalmClear
2:53 AM75.0 °F71.1 °F87 %29.94 in8.0 miCalmClear
4:53 AM73.9 °F70.0 °F87 %29.95 in7.0 miCalmClear
5:53 AM73.0 °F70.0 °F90 %29.96 in7.0 miCalmClear
6:53 AM73.0 °F70.0 °F90 %29.98 in7.0 miCalmClear
7:53 AM78.1 °F71.1 °F79 %29.99 in10.0 miCalmClear
9:53 AM84.9 °F71.1 °F63 %30.00 in10.0 miCalmClear
10:53 AM88.0 °F72.0 °F59 %30.01 in10.0 miCalmClear
11:53 AM90.0 °F72.0 °F55 %30.00 in10.0 miSouth (190°)3.5 mphClear
12:53 PM91.9 °F73.0 °F54 %29.99 in10.0 miVariable3.5 mphClear
1:53 PM93.0 °F72.0 °F50 %29.97 in10.0 miEast (80°)5.8 mphClear
2:53 PM93.0 °F72.0 °F50 %29.95 in10.0 miESE (110°)8.1 mphClear
3:53 PM93.9 °F73.0 °F51 %29.94 in10.0 miESE (110°)6.9 mphClear
4:53 PM93.0 °F72.0 °F50 %29.95 in10.0 miVariable5.8 mphClear
5:53 PM90.0 °F72.0 °F55 %29.94 in10.0 miESE (110°)4.6 mphClear
6:53 PM88.0 °F73.0 °F61 %29.96 in10.0 miCalmClear
7:53 PM82.9 °F73.0 °F72 %29.96 in10.0 miCalmClear
10:53 PM77.0 °F73.0 °F88 %30.00 in7.0 miCalmClear
11:53 PM77.0 °F72.0 °F84 %30.01 in6.0 miNNW (340°)3.5 mphHaze
Hourly data recorded from KPOF, located miles away from Malden, Missouri







STORIES FROM OUR PARTNERS